ASA9620 PAFA-KEUG

Flight info

Callsign ASA9620
Flight time N/A
Altitude 39000
Route RDFLG5 RDFLG J502 ORT Q902 YZT J523 TOU J501 WAPTO Q801 ECTOF
Aircraft B739/M-SDE2E3FGHIRWXY/LB1

Departure

Time 2026-04-17 15:19
Airport Fairbanks International Airport (PAFA)

Arrival

Time N/A
Airport Eugene Airport (KEUG)
Time Latitude Longitude Altitude Speed Heading
2026-04-17 14:59 64.81672 -147.86929 442 ft 0 kts 39°
2026-04-17 15:10 64.81667 -147.86939 431 ft 3 kts 39°
2026-04-17 15:10 64.81652 -147.86969 431 ft 3 kts 39°
2026-04-17 15:10 64.81636 -147.86999 426 ft 3 kts 39°
2026-04-17 15:11 64.81605 -147.87057 426 ft 3 kts 38°
2026-04-17 15:11 64.81589 -147.87087 426 ft 3 kts 38°
2026-04-17 15:11 64.81584 -147.87096 426 ft 1 kts 38°
2026-04-17 15:13 64.81586 -147.87090 426 ft 1 kts 54°
2026-04-17 15:14 64.81584 -147.87040 426 ft 7 kts 104°
2026-04-17 15:14 64.81542 -147.86882 435 ft 16 kts 125°
2026-04-17 15:14 64.81438 -147.86761 440 ft 19 kts 211°
2026-04-17 15:14 64.81333 -147.86956 437 ft 19 kts 218°
2026-04-17 15:15 64.81232 -147.87145 437 ft 18 kts 219°
2026-04-17 15:15 64.81134 -147.87323 442 ft 18 kts 218°
2026-04-17 15:15 64.81039 -147.87496 437 ft 17 kts 218°
2026-04-17 15:15 64.80947 -147.87665 442 ft 16 kts 219°
2026-04-17 15:16 64.80859 -147.87827 436 ft 16 kts 217°
2026-04-17 15:16 64.80775 -147.87986 440 ft 15 kts 218°
2026-04-17 15:16 64.80693 -147.88134 438 ft 15 kts 216°
2026-04-17 15:16 64.80616 -147.88279 442 ft 14 kts 224°
2026-04-17 15:17 64.80541 -147.88414 436 ft 13 kts 216°
2026-04-17 15:17 64.80485 -147.88398 432 ft 9 kts 128°
2026-04-17 15:17 64.80463 -147.88252 438 ft 11 kts 67°
2026-04-17 15:17 64.80522 -147.88119 433 ft 16 kts 38°
2026-04-17 15:18 64.80651 -147.87881 435 ft 0 kts 38°
2026-04-17 15:18 64.80729 -147.87739 430 ft 30 kts 38°
2026-04-17 15:19 64.81087 -147.87082 438 ft 104 kts 38°
2026-04-17 15:19 64.81824 -147.85718 504 ft 159 kts 39°
2026-04-17 15:19 64.82607 -147.83753 1161 ft 168 kts 58°
2026-04-17 15:19 64.82913 -147.81062 1976 ft 178 kts 92°
2026-04-17 15:20 64.82571 -147.78294 2695 ft 187 kts 118°
2026-04-17 15:20 64.81698 -147.75832 3194 ft 205 kts 141°
2026-04-17 15:20 64.80366 -147.74323 3639 ft 221 kts 161°
2026-04-17 15:20 64.78855 -147.73077 4076 ft 241 kts 162°
2026-04-17 15:21 64.77216 -147.71669 4630 ft 257 kts 160°
2026-04-17 15:21 64.75542 -147.70078 5597 ft 260 kts 159°
2026-04-17 15:21 64.73872 -147.68372 6545 ft 264 kts 158°
2026-04-17 15:21 64.72187 -147.66586 7477 ft 267 kts 158°
2026-04-17 15:22 64.70521 -147.64797 8429 ft 270 kts 157°
2026-04-17 15:22 64.68799 -147.62917 9374 ft 273 kts 154°
2026-04-17 15:22 64.67342 -147.60020 10201 ft 283 kts 129°
2026-04-17 15:22 64.66214 -147.56053 10619 ft 307 kts 124°
2026-04-17 15:23 64.65083 -147.51674 11164 ft 320 kts 123°
2026-04-17 15:23 64.63941 -147.47157 11973 ft 326 kts 122°
2026-04-17 15:23 64.62779 -147.42571 12876 ft 330 kts 123°
2026-04-17 15:23 64.61599 -147.37949 13774 ft 335 kts 123°
2026-04-17 15:24 64.60407 -147.33321 14578 ft 340 kts 123°
2026-04-17 15:24 64.59176 -147.28572 15444 ft 344 kts 124°
2026-04-17 15:24 64.57929 -147.23785 16299 ft 348 kts 124°
2026-04-17 15:24 64.56660 -147.18937 17150 ft 353 kts 124°
2026-04-17 15:25 64.55372 -147.14029 17996 ft 358 kts 124°
2026-04-17 15:25 64.54061 -147.09052 18739 ft 363 kts 125°
2026-04-17 15:25 64.52727 -147.04000 19478 ft 368 kts 125°
2026-04-17 15:25 64.51391 -146.98953 20190 ft 373 kts 126°
2026-04-17 15:26 64.50031 -146.93825 20949 ft 378 kts 126°
2026-04-17 15:26 64.48643 -146.88606 21679 ft 383 kts 126°
2026-04-17 15:26 64.47253 -146.83392 22403 ft 388 kts 127°
2026-04-17 15:26 64.45823 -146.78040 23100 ft 393 kts 127°
2026-04-17 15:27 64.44373 -146.72622 23738 ft 398 kts 127°
2026-04-17 15:27 64.42904 -146.67148 24312 ft 402 kts 128°
2026-04-17 15:27 64.41417 -146.61621 24915 ft 406 kts 128°
2026-04-17 15:27 64.39914 -146.56048 25509 ft 410 kts 128°
2026-04-17 15:28 64.38396 -146.50433 26058 ft 415 kts 129°
2026-04-17 15:28 64.36856 -146.44750 26614 ft 419 kts 129°
2026-04-17 15:28 64.35912 -146.41272 26949 ft 422 kts 129°
2026-04-17 15:28 64.34876 -146.37462 27344 ft 424 kts 129°
2026-04-17 15:29 64.33295 -146.31652 27872 ft 429 kts 130°
2026-04-17 15:29 64.31702 -146.25821 28400 ft 433 kts 130°
2026-04-17 15:29 64.30085 -146.19923 28932 ft 437 kts 130°
2026-04-17 15:29 64.28432 -146.14034 29435 ft 440 kts 131°
2026-04-17 15:30 64.26733 -146.08132 29909 ft 444 kts 132°
2026-04-17 15:30 64.25008 -146.02204 30291 ft 447 kts 132°
2026-04-17 15:30 64.23267 -145.96243 30652 ft 451 kts 132°
2026-04-17 15:30 64.21533 -145.90307 30994 ft 455 kts 131°
2026-04-17 15:31 64.19760 -145.84235 31340 ft 459 kts 131°
2026-04-17 15:31 64.17977 -145.78136 31671 ft 463 kts 131°
2026-04-17 15:31 64.16173 -145.71969 32008 ft 466 kts 130°
2026-04-17 15:31 64.14359 -145.65780 32330 ft 470 kts 130°
2026-04-17 15:32 64.12526 -145.59543 32647 ft 473 kts 130°
2026-04-17 15:32 64.10681 -145.53281 32963 ft 476 kts 130°
2026-04-17 15:32 64.08822 -145.46990 33348 ft 478 kts 129°
2026-04-17 15:32 64.06959 -145.40698 33816 ft 477 kts 129°
2026-04-17 15:33 64.05101 -145.34445 34197 ft 477 kts 129°
2026-04-17 15:33 64.03261 -145.28270 34525 ft 477 kts 129°
2026-04-17 15:33 64.01390 -145.22014 34844 ft 478 kts 129°
2026-04-17 15:33 63.99514 -145.15757 35174 ft 478 kts 129°
2026-04-17 15:34 63.97633 -145.09500 35510 ft 478 kts 129°
2026-04-17 15:34 63.95753 -145.03266 35831 ft 479 kts 128°
2026-04-17 15:34 63.93868 -144.97031 36151 ft 479 kts 128°
2026-04-17 15:34 63.91979 -144.90802 36478 ft 479 kts 128°
2026-04-17 15:35 63.90081 -144.84558 36790 ft 479 kts 128°
2026-04-17 15:35 63.88186 -144.78344 37096 ft 480 kts 128°
2026-04-17 15:35 63.86283 -144.72116 37398 ft 479 kts 128°
2026-04-17 15:35 63.84410 -144.66008 37701 ft 479 kts 128°
2026-04-17 15:36 63.82499 -144.59790 38001 ft 480 kts 128°
2026-04-17 15:36 63.80591 -144.53599 38296 ft 480 kts 128°
2026-04-17 15:36 63.78684 -144.47430 38582 ft 479 kts 128°
2026-04-17 15:36 63.76769 -144.41250 38818 ft 479 kts 128°
2026-04-17 15:37 63.74858 -144.35098 39043 ft 479 kts 128°
2026-04-17 15:37 63.72939 -144.28940 39255 ft 479 kts 128°
2026-04-17 15:37 63.71023 -144.22808 39471 ft 478 kts 128°
2026-04-17 15:37 63.69134 -144.16776 39666 ft 478 kts 128°
2026-04-17 15:38 63.67207 -144.10643 39871 ft 478 kts 128°
2026-04-17 15:38 63.65290 -144.04554 40076 ft 478 kts 128°
2026-04-17 15:38 63.63363 -143.98449 40242 ft 478 kts 128°
2026-04-17 15:38 63.61430 -143.92340 40418 ft 478 kts 128°
2026-04-17 15:39 63.59500 -143.86261 40603 ft 478 kts 128°
2026-04-17 15:39 63.57565 -143.80187 40807 ft 478 kts 128°
2026-04-17 15:39 63.55653 -143.74209 40961 ft 478 kts 128°
2026-04-17 15:40 63.51754 -143.62077 41026 ft 481 kts 128°
2026-04-17 15:40 63.47847 -143.49968 41004 ft 478 kts 128°
2026-04-17 15:41 63.43959 -143.37974 40989 ft 476 kts 128°
2026-04-17 15:41 63.40071 -143.26047 40974 ft 474 kts 129°
2026-04-17 15:42 63.36215 -143.14281 40959 ft 473 kts 129°
2026-04-17 15:42 63.32328 -143.02484 40960 ft 473 kts 129°
2026-04-17 15:43 63.28425 -142.90697 40962 ft 474 kts 129°
2026-04-17 15:43 63.25801 -142.82807 40967 ft 475 kts 129°
2026-04-17 15:44 63.21912 -142.71167 40988 ft 478 kts 129°
2026-04-17 15:44 63.17950 -142.59365 40863 ft 481 kts 129°
2026-04-17 15:45 63.13970 -142.47567 40876 ft 477 kts 129°
2026-04-17 15:45 63.09979 -142.35801 40871 ft 478 kts 129°
2026-04-17 15:46 63.05999 -142.24129 40857 ft 480 kts 130°
2026-04-17 15:46 63.01976 -142.12388 40845 ft 480 kts 130°
2026-04-17 15:47 62.97937 -142.00653 40841 ft 481 kts 130°
2026-04-17 15:47 62.93754 -141.89214 40830 ft 478 kts 139°
2026-04-17 15:48 62.88823 -141.79490 40840 ft 476 kts 142°
2026-04-17 15:48 62.83851 -141.70057 40860 ft 476 kts 142°
2026-04-17 15:49 62.78863 -141.60501 40874 ft 477 kts 142°
2026-04-17 15:49 62.73889 -141.50918 40895 ft 477 kts 142°
2026-04-17 15:50 62.69757 -141.42975 40910 ft 477 kts 142°
2026-04-17 15:50 62.63969 -141.31908 40916 ft 476 kts 142°
2026-04-17 15:51 62.58986 -141.22434 40917 ft 476 kts 142°
2026-04-17 15:51 62.54002 -141.13000 40909 ft 475 kts 142°
2026-04-17 15:52 62.49861 -141.05190 40912 ft 475 kts 142°
2026-04-17 15:52 62.44872 -140.95833 40908 ft 474 kts 143°
2026-04-17 15:53 62.39875 -140.86534 40910 ft 474 kts 143°
2026-04-17 15:53 62.34914 -140.77344 40909 ft 473 kts 143°
2026-04-17 15:54 62.29914 -140.68117 40907 ft 473 kts 143°
2026-04-17 15:54 62.24917 -140.58934 40914 ft 473 kts 143°
2026-04-17 15:55 62.19915 -140.49783 40912 ft 473 kts 143°
2026-04-17 15:55 62.14911 -140.40668 40923 ft 472 kts 143°
2026-04-17 15:56 62.09939 -140.31653 40921 ft 472 kts 143°
2026-04-17 15:56 62.04925 -140.22604 40926 ft 472 kts 143°
2026-04-17 15:57 61.99912 -140.13595 40928 ft 472 kts 143°
2026-04-17 15:57 61.94892 -140.04613 40933 ft 472 kts 144°
2026-04-17 15:58 61.89870 -139.95669 40941 ft 471 kts 144°
2026-04-17 15:58 61.85683 -139.88242 40939 ft 472 kts 144°
2026-04-17 15:59 61.81291 -139.80480 40940 ft 471 kts 144°
2026-04-17 15:59 61.76253 -139.71615 40946 ft 471 kts 144°
2026-04-17 16:00 61.71206 -139.62771 40948 ft 471 kts 144°
2026-04-17 16:00 61.66155 -139.53960 40953 ft 472 kts 144°
2026-04-17 16:01 61.61132 -139.45235 40935 ft 472 kts 144°
2026-04-17 16:01 61.56067 -139.36476 40895 ft 472 kts 144°
2026-04-17 16:02 61.50999 -139.27749 40861 ft 472 kts 144°
2026-04-17 16:02 61.45954 -139.19097 40833 ft 472 kts 144°
2026-04-17 16:03 61.40868 -139.10410 40822 ft 472 kts 144°
2026-04-17 16:03 61.35718 -139.01928 40820 ft 470 kts 150°
2026-04-17 16:04 61.30230 -138.94571 40819 ft 469 kts 152°
2026-04-17 16:04 61.24716 -138.87499 40847 ft 469 kts 152°
2026-04-17 16:05 61.19169 -138.80328 40880 ft 470 kts 152°
2026-04-17 16:05 61.13622 -138.73097 40912 ft 471 kts 152°
2026-04-17 16:06 61.08069 -138.65854 40945 ft 472 kts 152°
2026-04-17 16:06 61.02505 -138.58627 40955 ft 473 kts 152°
2026-04-17 16:07 60.96971 -138.51472 40962 ft 473 kts 152°